Буксунда

Россия / Магаданская область     62°26′31″N   156°41′14″E
темп.,
°C
ветер,
м/с
пор.,
м/с
влажн.,
%
обл.,
%
осадки,
мм/ч
давл.,
гПа
погр.,
м
22 октября, пт
пт2223:00−22с239785 0.0 101484
02:00−22с229791 0.0 101468
05:00−23с119766 0.0 101434
08:00−23с119622 0.0 101327
11:00−20ссз128913 0.0 1012160
14:00−18сз12846 0.0 1010201
17:00−21ссз11965 0.0 10109
20:00−22ссв11958 0.0 101010
23 октября, сб
сб2323:00−23ссв119310 0.0 10109
02:00−23ссв119240 0.0 101010
05:00−23ссв119156 0.0 10119
08:00−23ссв118955 0.0 101211
11:00−18зсз107594 0.0 101184
14:00−16зсз117278 0.0 1010115
17:00−18ссз118874 0.0 10119
20:00−19с119193 0.0 101312
24 октября, вс
вс2423:00−18ссз118787 0.0 101323
02:00−19ссз2285100 0.0 101347
05:00−18сз228295 0.0 101378
08:00−19сз238294 0.0 101486
11:00−18сз2273100 0.0 1014144
14:00−16сз237211 0.0 1013176
17:00−20сз11915 0.0 101412
20:00−21ссв11915 0.0 10159
25 октября, пн
пн2523:00−21в009240 0.0 10149
02:00−21в119144 0.0 10129
05:00−20вюв1190100 0.0 10119
08:00−18юв1188100 0.0 100913
11:00−13ююв2384100 0.0 1006115
14:00−11ююв2388100 0.0 1004161
17:00−12юв1196100 0.1 100510
20:00−12св1197100 0.6 100513
26 октября, вт
вт2623:00−13сз2297100 1.0 100621
02:00−15сз229790 0.1 100833
05:00−17ссз229885 0.1 101129
08:00−19с229870 0.0 101316
11:00−16ссз129259 0.0 1014126
14:00−15сз118816 0.0 1014157
17:00−18св11976 0.0 10159
20:00−20всв119710 0.0 101710